• în Republica Moldova
  • Lista ţărilor
  • Pe 7 zile
  • Temperatura apei
  • Hartă satelitară
  • Meteo pe hartă
  • Widget-uri
  • user-avatar
    Intrare

    Meteo pe oră la Bregenz

    Astăzi, 23 Aprilie, Duminică

    Timp Temperatura Precipitaţii Vânt Presiune Umiditate
    00:00 +1°C° 0,3 mm 1 m/s 646 mmHg 98%
    01:00 0°C° 0 mm 1 m/s 646 mmHg 98%
    02:00 0°C° 0,1 mm 1 m/s 646 mmHg 98%
    03:00 -1°C° 0,1 mm 1 m/s 646 mmHg 98%
    04:00 -1°C° 0,1 mm 1 m/s 646 mmHg 98%
    05:00 -1°C° 0 mm 1 m/s 646 mmHg 97%
    06:00 0°C° 0 mm 1 m/s 647 mmHg 96%
    07:00 +1°C° 0 mm 1 m/s 647 mmHg 96%
    08:00 +2°C° 0 mm 1 m/s 647 mmHg 93%
    09:00 +3°C° 0 mm 1 m/s 647 mmHg 90%
    10:00 +3°C° 0 mm 1 m/s 647 mmHg 87%
    11:00 +4°C° 0 mm 1 m/s 647 mmHg 83%
    12:00 +5°C° 0 mm 1 m/s 647 mmHg 79%
    13:00 +6°C° 0 mm 1 m/s 648 mmHg 76%
    14:00 +6°C° 0 mm 1 m/s 647 mmHg 75%
    15:00 +6°C° 0 mm 1 m/s 647 mmHg 74%
    16:00 +5°C° 0 mm 2 m/s 647 mmHg 74%
    17:00 +3°C° 0 mm 2 m/s 647 mmHg 79%
    18:00 +2°C° 0 mm 2 m/s 647 mmHg 85%
    19:00 -1°C° 0 mm 2 m/s 646 mmHg 90%
    20:00 -2°C° 0 mm 2 m/s 647 mmHg 92%
    21:00 -3°C° 0 mm 2 m/s 647 mmHg 93%
    22:00 -4°C° 0 mm 2 m/s 647 mmHg 95%
    23:00 -5°C° 0 mm 2 m/s 646 mmHg 94%

    Mâine, 24 Aprilie, Luni

    Timp Temperatura Precipitaţii Vânt Presiune Umiditate
    00:00 -5°C° 0 mm 2 m/s 646 mmHg 94%
    01:00 -5°C° 0 mm 2 m/s 646 mmHg 93%
    02:00 -3°C° 0 mm 1 m/s 645 mmHg 92%
    03:00 -4°C° 0 mm 1 m/s 645 mmHg 90%
    04:00 -4°C° 0 mm 1 m/s 645 mmHg 89%
    05:00 -2°C° 0 mm 1 m/s 645 mmHg 86%
    06:00 -1°C° 0 mm 1 m/s 645 mmHg 84%
    07:00 +1°C° 0 mm 1 m/s 646 mmHg 81%
    08:00 +4°C° 0 mm 1 m/s 646 mmHg 75%
    09:00 +7°C° 0 mm 1 m/s 646 mmHg 69%
    10:00 +9°C° 0 mm 1 m/s 647 mmHg 62%
    11:00 +10°C° 0 mm 1 m/s 647 mmHg 59%
    12:00 +11°C° 0 mm 1 m/s 647 mmHg 56%
    13:00 +12°C° 0 mm 1 m/s 646 mmHg 53%
    14:00 +12°C° 0,1 mm 1 m/s 646 mmHg 55%
    15:00 +12°C° 0,1 mm 2 m/s 646 mmHg 57%
    16:00 +12°C° 0,1 mm 2 m/s 645 mmHg 59%
    17:00 +10°C° 0,1 mm 1 m/s 644 mmHg 69%
    18:00 +7°C° 0,1 mm 1 m/s 643 mmHg 80%
    19:00 +5°C° 0,1 mm 1 m/s 642 mmHg 90%
    20:00 +4°C° 0,1 mm 1 m/s 642 mmHg 90%
    21:00 +3°C° 0,1 mm 2 m/s 642 mmHg 91%
    22:00 +2°C° 0,1 mm 2 m/s 643 mmHg 92%
    23:00 +2°C° 0,1 mm 2 m/s 642 mmHg 91%

    Poimâine, 25 Aprilie, Marţi

    Timp Temperatura Precipitaţii Vânt Presiune Umiditate
    00:00 +2°C° 0,1 mm 2 m/s 642 mmHg 91%
    01:00 +1°C° 0,1 mm 3 m/s 641 mmHg 91%
    02:00 +2°C° 0,3 mm 2 m/s 641 mmHg 91%
    03:00 +2°C° 0,3 mm 2 m/s 641 mmHg 91%
    04:00 +2°C° 0,3 mm 2 m/s 640 mmHg 91%
    05:00 +3°C° 0,1 mm 2 m/s 640 mmHg 90%
    06:00 +4°C° 0,1 mm 2 m/s 640 mmHg 89%
    07:00 +4°C° 0,1 mm 2 m/s 640 mmHg 87%
    08:00 +6°C° 0,1 mm 2 m/s 641 mmHg 82%
    09:00 +7°C° 0,1 mm 3 m/s 641 mmHg 76%
    10:00 +9°C° 0,1 mm 3 m/s 641 mmHg 71%
    11:00 +9°C° 0,7 mm 3 m/s 641 mmHg 75%
    12:00 +7°C° 0,7 mm 4 m/s 640 mmHg 79%
    13:00 +7°C° 0,7 mm 4 m/s 640 mmHg 83%
    14:00 +7°C° 1,5 mm 3 m/s 640 mmHg 86%
    15:00 +5°C° 1,5 mm 3 m/s 640 mmHg 90%
    16:00 +4°C° 1,5 mm 3 m/s 640 mmHg 94%
    17:00 +4°C° 1,6 mm 2 m/s 639 mmHg 95%
    18:00 +3°C° 1,6 mm 2 m/s 639 mmHg 96%
    19:00 +2°C° 1,6 mm 2 m/s 639 mmHg 97%
    20:00 +1°C° 1,5 mm 2 m/s 639 mmHg 97%
    21:00 +1°C° 1,5 mm 2 m/s 639 mmHg 97%
    22:00 -1°C° 1,5 mm 2 m/s 639 mmHg 97%
    23:00 -2°C° 1,2 mm 2 m/s 639 mmHg 97%

    26 Aprilie, Miercuri

    Timp Temperatura Precipitaţii Vânt Presiune Umiditate
    00:00 -2°C° 1,2 mm 2 m/s 639 mmHg 98%
    01:00 -1°C° 1,2 mm 1 m/s 638 mmHg 98%
    02:00 -1°C° 1,2 mm 1 m/s 638 mmHg 98%
    03:00 -2°C° 1,2 mm 1 m/s 638 mmHg 98%
    04:00 -2°C° 1,2 mm 1 m/s 638 mmHg 98%
    05:00 -4°C° 1 mm 2 m/s 638 mmHg 98%
    06:00 -4°C° 1 mm 2 m/s 638 mmHg 98%
    07:00 -4°C° 1 mm 2 m/s 638 mmHg 98%
    08:00 -4°C° 0,9 mm 2 m/s 638 mmHg 98%
    09:00 -4°C° 0,9 mm 2 m/s 638 mmHg 98%
    10:00 -4°C° 0,9 mm 3 m/s 638 mmHg 98%
    11:00 -4°C° 1,2 mm 3 m/s 638 mmHg 98%
    12:00 -4°C° 1,2 mm 3 m/s 638 mmHg 98%
    13:00 -4°C° 1,2 mm 3 m/s 638 mmHg 98%
    14:00 -4°C° 0,8 mm 3 m/s 638 mmHg 98%
    15:00 -3°C° 0,8 mm 2 m/s 638 mmHg 98%
    16:00 -3°C° 0,8 mm 2 m/s 639 mmHg 98%
    17:00 -3°C° 0,3 mm 2 m/s 639 mmHg 98%
    18:00 -4°C° 0,3 mm 2 m/s 638 mmHg 98%
    19:00 -4°C° 0,3 mm 2 m/s 638 mmHg 99%
    20:00 -4°C° 0,5 mm 2 m/s 639 mmHg 99%
    21:00 -3°C° 0,5 mm 1 m/s 639 mmHg 98%
    22:00 -3°C° 0,5 mm 1 m/s 639 mmHg 98%
    23:00 -3°C° 0,5 mm 1 m/s 639 mmHg 98%

    27 Aprilie, Joi

    Timp Temperatura Precipitaţii Vânt Presiune Umiditate
    00:00 -3°C° 0,5 mm 1 m/s 639 mmHg 98%
    01:00 -3°C° 0,5 mm 1 m/s 639 mmHg 98%
    02:00 -4°C° 0,4 mm 1 m/s 639 mmHg 98%
    03:00 -4°C° 0,4 mm 1 m/s 639 mmHg 98%
    04:00 -4°C° 0,4 mm 1 m/s 638 mmHg 98%
    05:00 -4°C° 0,4 mm 1 m/s 639 mmHg 98%
    06:00 -4°C° 0,4 mm 1 m/s 639 mmHg 98%
    07:00 -3°C° 0,4 mm 1 m/s 639 mmHg 98%
    08:00 -5°C° 0,4 mm 2 m/s 639 mmHg 98%
    09:00 -4°C° 0,4 mm 2 m/s 640 mmHg 98%
    10:00 -4°C° 0,4 mm 2 m/s 640 mmHg 98%
    11:00 -3°C° 0,4 mm 2 m/s 640 mmHg 98%
    12:00 -3°C° 0,4 mm 2 m/s 640 mmHg 98%
    13:00 -3°C° 0,4 mm 2 m/s 641 mmHg 98%
    14:00 -3°C° 0,6 mm 2 m/s 641 mmHg 98%
    15:00 -3°C° 0,6 mm 2 m/s 641 mmHg 98%
    16:00 -3°C° 0,6 mm 2 m/s 641 mmHg 98%
    17:00 -4°C° 0,7 mm 2 m/s 641 mmHg 98%
    18:00 -2°C° 0,7 mm 1 m/s 641 mmHg 98%
    19:00 -3°C° 0,7 mm 1 m/s 641 mmHg 98%
    20:00 -4°C° 0,6 mm 1 m/s 642 mmHg 98%
    21:00 -4°C° 0,6 mm 1 m/s 642 mmHg 98%
    22:00 -6°C° 0,6 mm 1 m/s 642 mmHg 98%
    23:00 -6°C° 0,7 mm 1 m/s 642 mmHg 98%

    28 Aprilie, Vineri

    Timp Temperatura Precipitaţii Vânt Presiune Umiditate
    00:00 -7°C° 0,7 mm 2 m/s 642 mmHg 98%
    01:00 -6°C° 0,7 mm 2 m/s 642 mmHg 98%
    02:00 -7°C° 0,9 mm 2 m/s 643 mmHg 98%
    03:00 -7°C° 0,9 mm 2 m/s 643 mmHg 98%
    04:00 -7°C° 0,9 mm 2 m/s 643 mmHg 98%
    05:00 -7°C° 0,8 mm 2 m/s 643 mmHg 98%
    06:00 -6°C° 0,8 mm 2 m/s 643 mmHg 98%
    07:00 -6°C° 0,8 mm 2 m/s 643 mmHg 97%
    08:00 -5°C° 0,6 mm 2 m/s 643 mmHg 97%
    09:00 -4°C° 0,6 mm 2 m/s 643 mmHg 97%
    10:00 -4°C° 0,6 mm 2 m/s 644 mmHg 97%
    11:00 -3°C° 0,4 mm 2 m/s 644 mmHg 97%
    12:00 -3°C° 0,4 mm 2 m/s 644 mmHg 96%
    13:00 -2°C° 0,4 mm 2 m/s 644 mmHg 96%
    14:00 -2°C° 0,4 mm 2 m/s 644 mmHg 96%
    15:00 -2°C° 0,4 mm 2 m/s 644 mmHg 96%
    16:00 -2°C° 0,4 mm 2 m/s 644 mmHg 96%
    17:00 0°C° 0,2 mm 1 m/s 644 mmHg 96%
    18:00 -1°C° 0,2 mm 1 m/s 644 mmHg 97%
    19:00 -2°C° 0,2 mm 1 m/s 644 mmHg 98%
    20:00 -4°C° 0 mm 1 m/s 644 mmHg 98%
    21:00 -8°C° 0 mm 1 m/s 644 mmHg 99%
    22:00 -10°C° 0 mm 0 m/s 643 mmHg 99%
    23:00 -11°C° 0 mm 0 m/s 643 mmHg 99%
    Arată mai mult